Location: Boiro
(42.6475°N, 8.8834°W)
Time: 06:15:08
(UTC+01:00)

Vanguard 1 - Pass Details

Date: 29 November 2021
Orbit: 652 x 3830 km, 34.2° (Epoch: 21 January)

Event Time Altitude Azimuth Distance (km) Brightness Sun altitude
Rises 04:26:16 0° 254° (WSW) 7,940 - -46.6°
Reaches altitude 10° 04:31:46 10° 252° (WSW) 6,932 - -45.7°
Exits shadow 04:51:05 60° 212° (SSW) 3,625 12.5 -42.2°
Maximum altitude 04:54:16 65° 178° (S) 3,348 12.4 -41.6°
Drops below altitude 10° 05:08:35 10° 100° (E) 4,684 14.2 -39.0°
Sets 05:11:30 0° 98° (E) 5,350 14.7 -38.5°
